Satellite: HRBE Catalog number: 37855 Epoch time: 13212.55491441 Element set: 553 Inclination: 101.7105 deg RA of node: 087.4512 deg Eccentricity: 0.0234547 Arg of perigee: 259.2704 deg Mean anomaly: 160.3502 deg Mean motion: 14.84384970 rev/day Decay rate: 1.842e-05 rev/day^2 Epoch rev: 9503 Checksum: 284
Satellite: RS-39 Catalog number: 38051 Epoch time: 13213.49073947 Element set: 656 Inclination: 051.6358 deg RA of node: 351.7031 deg Eccentricity: 0.0011667 Arg of perigee: 072.7814 deg Mean anomaly: 006.3838 deg Mean motion: 15.33866951 rev/day Decay rate: 1.0123e-04 rev/day^2 Epoch rev: 8473 Checksum: 309
Satellite: E-STAR Catalog number: 38079 Epoch time: 13213.08966442 Element set: 324 Inclination: 069.4748 deg RA of node: 074.6217 deg Eccentricity: 0.0592315 Arg of perigee: 077.4077 deg Mean anomaly: 060.3741 deg Mean motion: 14.51086477 rev/day Decay rate: 5.2443e-04 rev/day^2 Epoch rev: 7624 Checksum: 316
Satellite: GOLIAT Catalog number: 38085 Epoch time: 13213.07105966 Element set: 256 Inclination: 069.4711 deg RA of node: 077.2080 deg Eccentricity: 0.0603063 Arg of perigee: 078.6993 deg Mean anomaly: 288.1234 deg Mean motion: 14.48718366 rev/day Decay rate: 5.1917e-04 rev/day^2 Epoch rev: 7617 Checksum: 320
Satellite: HORYU-2 Catalog number: 38340 Epoch time: 13213.33771988 Element set: 563 Inclination: 098.2192 deg RA of node: 161.3907 deg Eccentricity: 0.0013631 Arg of perigee: 107.7678 deg Mean anomaly: 252.5000 deg Mean motion: 14.71054199 rev/day Decay rate: 6.38e-06 rev/day^2 Epoch rev: 6475 Checksum: 302
Satellite: RS-40 Catalog number: 38736 Epoch time: 13213.07117272 Element set: 333 Inclination: 082.4805 deg RA of node: 127.1485 deg Eccentricity: 0.0019946 Arg of perigee: 228.0133 deg Mean anomaly: 131.9249 deg Mean motion: 12.42869559 rev/day Decay rate: 1.0e-07 rev/day^2 Epoch rev: 4582 Checksum: 291
Satellite: PROITERES Catalog number: 38756 Epoch time: 13213.45298330 Element set: 989 Inclination: 098.2502 deg RA of node: 291.3247 deg Eccentricity: 0.0011826 Arg of perigee: 328.2761 deg Mean anomaly: 031.7734 deg Mean motion: 14.74284007 rev/day Decay rate: 3.63e-06 rev/day^2 Epoch rev: 4806 Checksum: 301
Satellite: RAIKO Catalog number: 38852 Epoch time: 13213.95014498 Element set: 314 Inclination: 051.6226 deg RA of node: 206.8233 deg Eccentricity: 0.0000700 Arg of perigee: 040.8717 deg Mean anomaly: 319.2840 deg Mean motion: 16.15041554 rev/day Decay rate: 1.501115e-02 rev/day^2 Epoch rev: 4716 Checksum: 260
Satellite: FITSAT 1 Catalog number: 38853 Epoch time: 13184.86912902 Element set: 315 Inclination: 051.6252 deg RA of node: 351.6077 deg Eccentricity: 0.0011722 Arg of perigee: 245.9321 deg Mean anomaly: 114.2104 deg Mean motion: 16.39337660 rev/day Decay rate: 6.638326e-02 rev/day^2 Epoch rev: 4270 Checksum: 289
Satellite: TechEdSat Catalog number: 38854 Epoch time: 13124.93253577 Element set: 290 Inclination: 051.6449 deg RA of node: 297.0261 deg Eccentricity: 0.0010505 Arg of perigee: 310.8629 deg Mean anomaly: 049.0629 deg Mean motion: 16.38844728 rev/day Decay rate: 1.1592855e-01 rev/day^2 Epoch rev: 3329 Checksum: 325
Satellite: F 1 Catalog number: 38855 Epoch time: 13129.77714356 Element set: 287 Inclination: 051.5085 deg RA of node: 272.4145 deg Eccentricity: 0.0008326 Arg of perigee: 194.2908 deg Mean anomaly: 166.5495 deg Mean motion: 16.49710473 rev/day Decay rate: 2.7424026e-01 rev/day^2 Epoch rev: 3394 Checksum: 332
Satellite: WeWish Catalog number: 38856 Epoch time: 13069.98095549 Element set: 248 Inclination: 051.6166 deg RA of node: 215.0521 deg Eccentricity: 0.0008325 Arg of perigee: 316.0438 deg Mean anomaly: 044.8765 deg Mean motion: 16.41348316 rev/day Decay rate: 1.6701328e-01 rev/day^2 Epoch rev: 2458 Checksum: 318
Satellite: OSSI-1 Catalog number: 39131 Epoch time: 13188.41684431 Element set: 8 Inclination: 064.8841 deg RA of node: 114.8425 deg Eccentricity: 0.0051126 Arg of perigee: 026.6892 deg Mean anomaly: 350.0589 deg Mean motion: 16.22925119 rev/day Decay rate: 1.502874e-02 rev/day^2 Epoch rev: 1237 Checksum: 296
Satellite: BEESAT-3 Catalog number: 39134 Epoch time: 13213.03029649 Element set: 257 Inclination: 064.8760 deg RA of node: 067.7158 deg Eccentricity: 0.0008111 Arg of perigee: 204.1537 deg Mean anomaly: 316.6619 deg Mean motion: 15.00627175 rev/day Decay rate: 2.521e-05 rev/day^2 Epoch rev: 1555 Checksum: 279
Satellite: BEESAT-2 Catalog number: 39136 Epoch time: 13213.03227105 Element set: 238 Inclination: 064.8780 deg RA of node: 067.7171 deg Eccentricity: 0.0008544 Arg of perigee: 204.4592 deg Mean anomaly: 320.2271 deg Mean motion: 15.00568610 rev/day Decay rate: 2.189e-05 rev/day^2 Epoch rev: 1555 Checksum: 270
/EX
participants (1)
-
Ray Hoad